Location: 10048 Water Well
(33.8501°N, 106.8364°W)
Time: 21:30:50
(UTC+00:00)

STARLINK-36072 - Pass Details

Date: 11 December 2025
Orbit: 482 x 484 km, 43.0° (Epoch: 21 January)

Event Time Altitude Azimuth Distance (km) Brightness Sun altitude
Exits shadow 11:07:44 - 111° (ESE) 1,722 5.9 -35.4°
Enters shadow 12:11:42 -59° 239° (WSW) 11,498 9.3 -22.3°
Maximum altitude 12:44:47 78° 150° (SSE) 496 2.4 -15.7°
